sat.trackr.live / text

‹ back to catalog

ORBCOMM FM108

NORAD 41187 · 2015-081J

PAYLOAD ACTIVE UNKNOWN

§ Identity

Operator
Country
ORB
Launch date
2015-12-22
Launch site
AFETR
Launch vehicle
Mass (kg)
RCS (m²)
0.53

Purposes: comms

External: N2YO · Heavens-Above · Gunter

§ Orbital elements

Epoch: 2026-09-19T04:16:25.035456Z

Period
98.70 min
Inclination
47.0036°
Eccentricity
0.0002579
Mean motion
14.58982303 rev/d
Perigee alt
694.6 km
Apogee alt
698.3 km
Semi-major
7,074.6 km
B*
9.0285e-5
RAAN
97.7680°
Arg perigee
268.6363°
Mean anomaly
91.4227°
Rev number
57,380

§ Raw data

ORBCOMM FM1081 41187U 15081J   26262.17806754  .00000256  00000+0  90285-4 0  99922 41187  47.0036  97.7680 0002579 268.6363  91.4227 14.58982303573808

JSON: /api/v1/satellites/41187 · /tle

For live sub-satellite position, see the globe view (requires WebGL).

§ Visibility from observer

Set your observer location to see the next 7 days of passes ≥ 10°. The values pass through the URL so the page stays shareable.

No JS? Fill the form by hand. The geolocation button needs JavaScript.

§ Radio — SatNOGS DB

ModeDescriptionDownlinkUplink
FM Telemetry 137.713 MHz
FM Telemetry 137.460 MHz

2 transmitters · refreshed weekly from db.satnogs.org